TRA87Y LPPT-EHRD

Flight info

Callsign TRA87Y
Flight time 2h 11m
Altitude 36000
Route IXIDA DCT TOSDI DCT ZMR DCT NUBLO DCT RONSI DCT DELOG DCT DIDIG DCT USODA DCT ERCUT DCT DITAL DCT ELCOB DCT PODEM DCT BAZOS DCT BELDI DCT VEKIN DCT ADUTO N873 FERDI Y18 DENUT
Aircraft B738/M-SDE2E3FGHIRWXY/LB1

Departure

Time 2026-05-06 11:18
Airport Lisbon Humberto Delgado Airport (LPPT)

Arrival

Time 2026-05-06 13:30
Airport Rotterdam The Hague Airport (EHRD)
Time Latitude Longitude Altitude Speed Heading
2026-05-06 10:55 38.76444 -9.13828 344 ft 0 kts 169°
2026-05-06 11:10 38.76452 -9.13830 344 ft 2 kts 169°
2026-05-06 11:10 38.76467 -9.13834 344 ft 2 kts 169°
2026-05-06 11:11 38.76481 -9.13837 344 ft 2 kts 169°
2026-05-06 11:11 38.76496 -9.13841 344 ft 2 kts 169°
2026-05-06 11:11 38.76511 -9.13842 344 ft 2 kts 201°
2026-05-06 11:11 38.76523 -9.13831 343 ft 2 kts 237°
2026-05-06 11:12 38.76527 -9.13821 343 ft 1 kts 257°
2026-05-06 11:12 38.76528 -9.13813 343 ft 0 kts 259°
2026-05-06 11:14 38.76528 -9.13814 343 ft 1 kts 259°
2026-05-06 11:14 38.76523 -9.13841 343 ft 4 kts 258°
2026-05-06 11:14 38.76519 -9.13895 343 ft 7 kts 284°
2026-05-06 11:15 38.76566 -9.13954 341 ft 11 kts 301°
2026-05-06 11:15 38.76546 -9.14033 340 ft 11 kts 226°
2026-05-06 11:15 38.76496 -9.14132 338 ft 15 kts 252°
2026-05-06 11:15 38.76520 -9.14248 337 ft 11 kts 294°
2026-05-06 11:16 38.76539 -9.14304 337 ft 0 kts 292°
2026-05-06 11:16 38.76547 -9.14332 337 ft 5 kts 292°
2026-05-06 11:17 38.76572 -9.14384 337 ft 8 kts 320°
2026-05-06 11:17 38.76638 -9.14393 337 ft 11 kts 19°
2026-05-06 11:17 38.76745 -9.14336 339 ft 34 kts 22°
2026-05-06 11:17 38.77210 -9.14086 348 ft 106 kts 21°
2026-05-06 11:18 38.78078 -9.13621 361 ft 163 kts 22°
2026-05-06 11:18 38.79210 -9.12985 739 ft 183 kts 21°
2026-05-06 11:18 38.80368 -9.12326 1463 ft 188 kts 21°
2026-05-06 11:18 38.81553 -9.11655 2262 ft 190 kts 24°
2026-05-06 11:19 38.82758 -9.10949 3007 ft 194 kts 24°
2026-05-06 11:19 38.83904 -9.09933 3318 ft 217 kts 38°
2026-05-06 11:19 38.85218 -9.08719 3693 ft 241 kts 30°
2026-05-06 11:19 38.86682 -9.07619 4446 ft 252 kts 29°
2026-05-06 11:20 38.88223 -9.06503 5225 ft 260 kts 30°
2026-05-06 11:20 38.89756 -9.05290 6042 ft 266 kts 37°
2026-05-06 11:20 38.91161 -9.03721 6911 ft 269 kts 43°
2026-05-06 11:20 38.92544 -9.02109 7716 ft 275 kts 43°
2026-05-06 11:21 38.93955 -9.00469 8522 ft 279 kts 43°
2026-05-06 11:21 38.95402 -8.98789 9221 ft 287 kts 43°
2026-05-06 11:21 38.96896 -8.97044 10027 ft 291 kts 43°
2026-05-06 11:21 38.98416 -8.95216 10333 ft 314 kts 44°
2026-05-06 11:22 39.00061 -8.93214 10634 ft 334 kts 43°
2026-05-06 11:22 39.01809 -8.91114 10856 ft 357 kts 43°
2026-05-06 11:22 39.03646 -8.88920 11444 ft 365 kts 42°
2026-05-06 11:22 39.05542 -8.86670 12047 ft 373 kts 42°
2026-05-06 11:23 39.07437 -8.84448 12751 ft 377 kts 42°
2026-05-06 11:23 39.09393 -8.82176 13416 ft 381 kts 41°
2026-05-06 11:23 39.11372 -8.79891 14090 ft 385 kts 41°
2026-05-06 11:23 39.13368 -8.77598 14734 ft 389 kts 41°
2026-05-06 11:24 39.15394 -8.75263 15382 ft 393 kts 41°
2026-05-06 11:24 39.17387 -8.72811 15986 ft 397 kts 46°
2026-05-06 11:24 39.19220 -8.70169 16593 ft 400 kts 49°
2026-05-06 11:24 39.21034 -8.67484 17170 ft 404 kts 49°
2026-05-06 11:25 39.22913 -8.64724 17754 ft 407 kts 48°
2026-05-06 11:25 39.24762 -8.62014 18300 ft 411 kts 48°
2026-05-06 11:25 39.26662 -8.59224 18845 ft 414 kts 49°
2026-05-06 11:25 39.28571 -8.56419 19378 ft 417 kts 49°
2026-05-06 11:26 39.30476 -8.53619 19888 ft 421 kts 49°
2026-05-06 11:26 39.32403 -8.50782 20390 ft 424 kts 49°
2026-05-06 11:26 39.34364 -8.47894 20873 ft 427 kts 49°
2026-05-06 11:26 39.36306 -8.45031 21353 ft 430 kts 49°
2026-05-06 11:27 39.38287 -8.42109 21821 ft 433 kts 49°
2026-05-06 11:27 39.40273 -8.39175 22275 ft 436 kts 49°
2026-05-06 11:27 39.42278 -8.36211 22711 ft 439 kts 49°
2026-05-06 11:27 39.44292 -8.33230 23145 ft 442 kts 49°
2026-05-06 11:28 39.46311 -8.30242 23556 ft 445 kts 49°
2026-05-06 11:28 39.48351 -8.27221 23960 ft 448 kts 49°
2026-05-06 11:28 39.50408 -8.24168 24365 ft 451 kts 49°
2026-05-06 11:28 39.52451 -8.21135 24753 ft 453 kts 49°
2026-05-06 11:29 39.54527 -8.18049 25112 ft 456 kts 49°
2026-05-06 11:29 39.56604 -8.14958 25488 ft 458 kts 49°
2026-05-06 11:29 39.58717 -8.11810 25839 ft 461 kts 49°
2026-05-06 11:29 39.60795 -8.08711 26171 ft 464 kts 49°
2026-05-06 11:30 39.62911 -8.05554 26499 ft 466 kts 49°
2026-05-06 11:30 39.65033 -8.02383 26829 ft 468 kts 49°
2026-05-06 11:30 39.67242 -7.99262 27147 ft 471 kts 45°
2026-05-06 11:30 39.69599 -7.96314 27457 ft 473 kts 43°
2026-05-06 11:31 39.71989 -7.93380 27740 ft 475 kts 43°
2026-05-06 11:31 39.74382 -7.90406 28046 ft 477 kts 44°
2026-05-06 11:31 39.76759 -7.87430 28307 ft 480 kts 44°
2026-05-06 11:31 39.79157 -7.84419 28575 ft 482 kts 44°
2026-05-06 11:32 39.81559 -7.81395 28832 ft 484 kts 44°
2026-05-06 11:32 39.83972 -7.78350 29114 ft 485 kts 44°
2026-05-06 11:32 39.86400 -7.75281 29421 ft 486 kts 44°
2026-05-06 11:32 39.88829 -7.72205 29704 ft 486 kts 44°
2026-05-06 11:33 39.91244 -7.69142 30017 ft 486 kts 44°
2026-05-06 11:33 39.93662 -7.66070 30345 ft 486 kts 44°
2026-05-06 11:33 39.96046 -7.63039 30648 ft 486 kts 44°
2026-05-06 11:33 39.98455 -7.59972 30930 ft 486 kts 44°
2026-05-06 11:34 40.00872 -7.56890 31246 ft 485 kts 44°
2026-05-06 11:34 40.03280 -7.53818 31554 ft 485 kts 44°
2026-05-06 11:34 40.05663 -7.50772 31832 ft 485 kts 44°
2026-05-06 11:34 40.08067 -7.47698 32138 ft 484 kts 44°
2026-05-06 11:35 40.10469 -7.44623 32410 ft 484 kts 44°
2026-05-06 11:35 40.12883 -7.41527 32681 ft 483 kts 44°
2026-05-06 11:35 40.15251 -7.38486 32956 ft 483 kts 44°
2026-05-06 11:35 40.17651 -7.35404 33235 ft 482 kts 44°
2026-05-06 11:36 40.20009 -7.32374 33511 ft 481 kts 45°
2026-05-06 11:36 40.22423 -7.29269 33750 ft 481 kts 45°
2026-05-06 11:36 40.24779 -7.26236 34025 ft 480 kts 45°
2026-05-06 11:36 40.27146 -7.23183 34279 ft 479 kts 45°
2026-05-06 11:37 40.29520 -7.20119 34517 ft 479 kts 45°
2026-05-06 11:37 40.31882 -7.17066 34734 ft 479 kts 45°
2026-05-06 11:37 40.34228 -7.14033 35010 ft 478 kts 45°
2026-05-06 11:37 40.36586 -7.10978 35223 ft 478 kts 45°
2026-05-06 11:38 40.38945 -7.07918 35435 ft 477 kts 45°
2026-05-06 11:38 40.41291 -7.04873 35670 ft 477 kts 45°
2026-05-06 11:38 40.43655 -7.01799 35890 ft 476 kts 46°
2026-05-06 11:38 40.46000 -6.98747 36013 ft 477 kts 46°
2026-05-06 11:39 40.48338 -6.95701 36018 ft 476 kts 46°
2026-05-06 11:39 40.52991 -6.89630 36020 ft 470 kts 46°
2026-05-06 11:40 40.57636 -6.83556 36021 ft 469 kts 46°
2026-05-06 11:40 40.62241 -6.77524 36020 ft 470 kts 46°
2026-05-06 11:41 40.66855 -6.71469 36020 ft 471 kts 46°
2026-05-06 11:41 40.71490 -6.65374 36020 ft 470 kts 46°
2026-05-06 11:42 40.76083 -6.59322 36020 ft 470 kts 46°
2026-05-06 11:42 40.80696 -6.53231 36020 ft 470 kts 46°
2026-05-06 11:43 40.85324 -6.47108 36020 ft 470 kts 46°
2026-05-06 11:43 40.89915 -6.41021 36020 ft 470 kts 46°
2026-05-06 11:44 40.96826 -6.31836 36019 ft 470 kts 46°
2026-05-06 11:44 41.01506 -6.25782 36020 ft 478 kts 43°
2026-05-06 11:45 41.06530 -6.19884 36021 ft 488 kts 41°
2026-05-06 11:45 41.11624 -6.13860 36020 ft 495 kts 39°
2026-05-06 11:46 41.16742 -6.07794 36018 ft 494 kts 39°
2026-05-06 11:46 41.21856 -6.01698 36019 ft 492 kts 39°
2026-05-06 11:47 41.26928 -5.95619 36020 ft 493 kts 40°
2026-05-06 11:47 41.31994 -5.89525 36020 ft 493 kts 39°
2026-05-06 11:48 41.37051 -5.83423 36020 ft 493 kts 40°
2026-05-06 11:48 41.42123 -5.77288 36020 ft 493 kts 40°
2026-05-06 11:49 41.47186 -5.71146 36020 ft 493 kts 40°
2026-05-06 11:49 41.52405 -5.65245 36019 ft 490 kts 32°
2026-05-06 11:50 41.58291 -5.61013 36023 ft 483 kts 18°
2026-05-06 11:50 41.64514 -5.57567 36020 ft 484 kts 18°
2026-05-06 11:51 41.70680 -5.54095 36019 ft 484 kts 18°
2026-05-06 11:51 41.76860 -5.50604 36019 ft 483 kts 18°
2026-05-06 11:52 41.83022 -5.47113 36020 ft 483 kts 18°
2026-05-06 11:52 41.89225 -5.43589 36019 ft 483 kts 18°
2026-05-06 11:53 41.95375 -5.40087 36020 ft 483 kts 18°
2026-05-06 11:53 42.01562 -5.36557 36019 ft 483 kts 18°
2026-05-06 11:54 42.07724 -5.33035 36020 ft 484 kts 19°
2026-05-06 11:54 42.13909 -5.29497 36020 ft 484 kts 19°
2026-05-06 11:55 42.20087 -5.25952 36020 ft 484 kts 19°
2026-05-06 11:55 42.26232 -5.22416 36020 ft 484 kts 19°
2026-05-06 11:56 42.32445 -5.18834 36020 ft 484 kts 19°
2026-05-06 11:56 42.38607 -5.15273 36020 ft 484 kts 19°
2026-05-06 11:57 42.44785 -5.11695 36020 ft 484 kts 19°
2026-05-06 11:57 42.50926 -5.08129 36020 ft 484 kts 19°
2026-05-06 11:58 42.57116 -5.04528 36020 ft 484 kts 19°
2026-05-06 11:58 42.63293 -5.00927 36020 ft 483 kts 19°
2026-05-06 11:59 42.69453 -4.97326 36019 ft 482 kts 19°
2026-05-06 11:59 42.75597 -4.93726 36020 ft 481 kts 19°
2026-05-06 12:00 42.81719 -4.90130 36020 ft 481 kts 19°
2026-05-06 12:00 42.87855 -4.86519 36020 ft 480 kts 19°
2026-05-06 12:01 42.93917 -4.82943 36019 ft 481 kts 18°
2026-05-06 12:01 43.00115 -4.79293 36020 ft 484 kts 17°
2026-05-06 12:02 43.06280 -4.75668 36024 ft 488 kts 16°
2026-05-06 12:02 43.12508 -4.71999 36034 ft 487 kts 16°
2026-05-06 12:03 43.18708 -4.68323 36043 ft 486 kts 16°
2026-05-06 12:03 43.24883 -4.64651 36047 ft 486 kts 17°
2026-05-06 12:04 43.31104 -4.60940 36047 ft 487 kts 16°
2026-05-06 12:04 43.37284 -4.57241 36047 ft 486 kts 16°
2026-05-06 12:05 43.43435 -4.53552 36047 ft 486 kts 17°
2026-05-06 12:05 43.49616 -4.49834 36047 ft 486 kts 17°
2026-05-06 12:06 43.55829 -4.46088 36047 ft 486 kts 16°
2026-05-06 12:06 43.61994 -4.42364 36047 ft 486 kts 16°
2026-05-06 12:07 43.68165 -4.38628 36047 ft 487 kts 16°
2026-05-06 12:07 43.74327 -4.34889 36046 ft 486 kts 17°
2026-05-06 12:08 43.80524 -4.31126 36047 ft 487 kts 17°
2026-05-06 12:08 43.86730 -4.27348 36047 ft 487 kts 17°
2026-05-06 12:09 43.92878 -4.23594 36047 ft 487 kts 17°
2026-05-06 12:09 43.98963 -4.19871 36047 ft 487 kts 17°
2026-05-06 12:10 44.04683 -4.16362 36047 ft 487 kts 17°
2026-05-06 12:10 44.10854 -4.12566 36046 ft 486 kts 17°
2026-05-06 12:11 44.17027 -4.08760 36047 ft 487 kts 17°
2026-05-06 12:11 44.23212 -4.04939 36047 ft 487 kts 17°
2026-05-06 12:12 44.29378 -4.01119 36046 ft 487 kts 17°
2026-05-06 12:12 44.35280 -3.96434 36049 ft 496 kts 28°
2026-05-06 12:13 44.41001 -3.90938 36047 ft 497 kts 28°
2026-05-06 12:13 44.46645 -3.85502 36047 ft 496 kts 29°
2026-05-06 12:14 44.52327 -3.79981 36047 ft 497 kts 29°
2026-05-06 12:14 44.57973 -3.74465 36047 ft 497 kts 29°
2026-05-06 12:15 44.63628 -3.68914 36047 ft 497 kts 29°
2026-05-06 12:15 44.69297 -3.63333 36047 ft 497 kts 29°
2026-05-06 12:16 44.74939 -3.57762 36046 ft 496 kts 29°
2026-05-06 12:16 44.80557 -3.52201 36047 ft 497 kts 29°
2026-05-06 12:17 44.86214 -3.46587 36046 ft 497 kts 29°
2026-05-06 12:17 44.91836 -3.40992 36047 ft 497 kts 29°
2026-05-06 12:18 44.97468 -3.35373 36047 ft 497 kts 29°
2026-05-06 12:18 45.03112 -3.29740 36047 ft 497 kts 30°
2026-05-06 12:19 45.08744 -3.24108 36047 ft 497 kts 29°
2026-05-06 12:19 45.14370 -3.18463 36047 ft 496 kts 29°
2026-05-06 12:20 45.19952 -3.12846 36047 ft 496 kts 29°
2026-05-06 12:20 45.25590 -3.07156 36041 ft 495 kts 29°
2026-05-06 12:21 45.31129 -3.01537 36012 ft 489 kts 29°
2026-05-06 12:21 45.36624 -2.95947 35974 ft 485 kts 29°
2026-05-06 12:22 45.42084 -2.90380 35950 ft 482 kts 29°
2026-05-06 12:22 45.47485 -2.84857 35938 ft 479 kts 29°
2026-05-06 12:23 45.52895 -2.79317 35939 ft 480 kts 29°
2026-05-06 12:23 45.58284 -2.73792 35939 ft 480 kts 29°
2026-05-06 12:24 45.63699 -2.68228 35939 ft 480 kts 29°
2026-05-06 12:24 45.69126 -2.62641 35939 ft 481 kts 29°
2026-05-06 12:25 45.74533 -2.57059 35938 ft 480 kts 29°
2026-05-06 12:25 45.79910 -2.51496 35938 ft 480 kts 29°
2026-05-06 12:26 45.85312 -2.45895 35939 ft 481 kts 29°
2026-05-06 12:26 45.90717 -2.40277 35939 ft 480 kts 29°
2026-05-06 12:27 45.96115 -2.34649 35941 ft 480 kts 30°
2026-05-06 12:27 46.01503 -2.29028 35947 ft 480 kts 30°
2026-05-06 12:28 46.06916 -2.23425 35947 ft 480 kts 28°
2026-05-06 12:28 46.12480 -2.18199 35947 ft 479 kts 26°
2026-05-06 12:29 46.18057 -2.12962 35952 ft 478 kts 27°
2026-05-06 12:29 46.23617 -2.07705 35961 ft 479 kts 27°
2026-05-06 12:30 46.29165 -2.02438 35966 ft 478 kts 27°
2026-05-06 12:30 46.34719 -1.97147 35966 ft 479 kts 27°
2026-05-06 12:31 46.40243 -1.91869 35966 ft 479 kts 27°
2026-05-06 12:31 46.45779 -1.86565 35966 ft 479 kts 27°
2026-05-06 12:32 46.51342 -1.81222 35966 ft 479 kts 27°
2026-05-06 12:32 46.56877 -1.75890 35965 ft 479 kts 27°
2026-05-06 12:33 46.62389 -1.70567 35966 ft 478 kts 27°
2026-05-06 12:33 46.67928 -1.65204 35965 ft 478 kts 27°
2026-05-06 12:34 46.73453 -1.59843 35965 ft 478 kts 27°
2026-05-06 12:34 46.78975 -1.54472 35966 ft 478 kts 27°
2026-05-06 12:35 46.84493 -1.49090 35966 ft 478 kts 27°
2026-05-06 12:35 46.90000 -1.43706 35965 ft 479 kts 27°
2026-05-06 12:36 46.95512 -1.38050 35962 ft 494 kts 34°
2026-05-06 12:36 47.00482 -1.30841 35968 ft 510 kts 40°
2026-05-06 12:37 47.05376 -1.23219 35967 ft 520 kts 41°
2026-05-06 12:37 47.10263 -1.15434 35964 ft 520 kts 42°
2026-05-06 12:38 47.15067 -1.07622 35964 ft 513 kts 42°
2026-05-06 12:38 47.19793 -0.99862 35966 ft 510 kts 43°
2026-05-06 12:39 47.24489 -0.92102 35966 ft 508 kts 43°
2026-05-06 12:39 47.29162 -0.84354 35966 ft 508 kts 43°
2026-05-06 12:40 47.33865 -0.76537 35966 ft 509 kts 43°
2026-05-06 12:40 47.38554 -0.68719 35966 ft 509 kts 43°
2026-05-06 12:41 47.43286 -0.61039 35963 ft 505 kts 37°
2026-05-06 12:41 47.48676 -0.54598 35968 ft 498 kts 30°
2026-05-06 12:42 47.54208 -0.48400 35966 ft 498 kts 30°
2026-05-06 12:42 47.59709 -0.42262 35965 ft 498 kts 30°
2026-05-06 12:43 47.65244 -0.36094 35966 ft 498 kts 30°
2026-05-06 12:43 47.70779 -0.29928 35966 ft 498 kts 30°
2026-05-06 12:44 47.76286 -0.23789 35966 ft 499 kts 30°
2026-05-06 12:44 47.81816 -0.17603 35966 ft 499 kts 30°
2026-05-06 12:45 47.87358 -0.11388 35966 ft 499 kts 30°
2026-05-06 12:46 47.95647 -0.02059 35966 ft 499 kts 30°
2026-05-06 12:46 48.01173 0.04183 35966 ft 499 kts 30°
2026-05-06 12:47 48.06691 0.10431 35966 ft 499 kts 30°
2026-05-06 12:47 48.12181 0.16665 35966 ft 499 kts 30°
2026-05-06 12:48 48.17715 0.22966 35966 ft 498 kts 30°
2026-05-06 12:48 48.23197 0.29225 35966 ft 498 kts 30°
2026-05-06 12:49 48.28702 0.35530 35966 ft 498 kts 30°
2026-05-06 12:49 48.34186 0.41828 35966 ft 498 kts 30°
2026-05-06 12:50 48.39697 0.48175 35966 ft 498 kts 30°
2026-05-06 12:50 48.45178 0.54503 35963 ft 499 kts 30°
2026-05-06 12:51 48.50685 0.60880 35954 ft 499 kts 30°
2026-05-06 12:51 48.56138 0.67210 35946 ft 499 kts 31°
2026-05-06 12:52 48.61644 0.73607 35940 ft 500 kts 31°
2026-05-06 12:52 48.67127 0.80002 35939 ft 500 kts 31°
2026-05-06 12:53 48.72635 0.86447 35938 ft 499 kts 31°
2026-05-06 12:53 48.78096 0.92801 35939 ft 498 kts 30°
2026-05-06 12:54 48.83602 0.99121 35939 ft 498 kts 30°
2026-05-06 12:54 48.89118 1.05490 35939 ft 495 kts 31°
2026-05-06 12:55 48.94585 1.11830 35938 ft 492 kts 31°
2026-05-06 12:55 48.99996 1.18126 35938 ft 493 kts 30°
2026-05-06 12:56 49.05347 1.24872 35940 ft 508 kts 36°
2026-05-06 12:56 49.10545 1.32332 35939 ft 519 kts 35°
2026-05-06 12:57 49.15827 1.39880 35939 ft 524 kts 35°
2026-05-06 12:57 49.21082 1.47456 35936 ft 521 kts 35°
2026-05-06 12:58 49.26363 1.55113 35930 ft 520 kts 35°
2026-05-06 12:58 49.31568 1.62691 35921 ft 521 kts 35°
2026-05-06 12:59 49.36815 1.70337 35913 ft 521 kts 36°
2026-05-06 12:59 49.42070 1.78022 35912 ft 522 kts 36°
2026-05-06 13:00 49.47305 1.85717 35912 ft 522 kts 36°
2026-05-06 13:00 49.52550 1.93452 35912 ft 522 kts 36°
2026-05-06 13:01 49.57784 2.01204 35912 ft 522 kts 36°
2026-05-06 13:01 49.62994 2.08946 35912 ft 522 kts 36°
2026-05-06 13:02 49.68194 2.16699 35912 ft 522 kts 36°
2026-05-06 13:02 49.73418 2.24511 35912 ft 522 kts 36°
2026-05-06 13:03 49.78597 2.32280 35912 ft 522 kts 36°
2026-05-06 13:03 49.83787 2.40088 35912 ft 522 kts 36°
2026-05-06 13:04 49.88978 2.47922 35911 ft 522 kts 36°
2026-05-06 13:04 49.94188 2.55815 35911 ft 522 kts 36°
2026-05-06 13:05 49.99359 2.63670 35911 ft 522 kts 36°
2026-05-06 13:05 50.04562 2.71585 35912 ft 522 kts 37°
2026-05-06 13:06 50.09750 2.79500 35912 ft 523 kts 37°
2026-05-06 13:06 50.14898 2.87392 35912 ft 523 kts 37°
2026-05-06 13:07 50.20068 2.95352 35912 ft 520 kts 37°
2026-05-06 13:07 50.25176 3.03254 35911 ft 516 kts 37°
2026-05-06 13:08 50.30245 3.11125 35912 ft 512 kts 37°
2026-05-06 13:08 50.35252 3.18928 35912 ft 510 kts 37°
2026-05-06 13:08 50.37763 3.22891 35783 ft 505 kts 36°
2026-05-06 13:09 50.40356 3.26525 34890 ft 502 kts 29°
2026-05-06 13:09 50.43210 3.29509 33994 ft 492 kts 19°
2026-05-06 13:09 50.46255 3.31941 33097 ft 489 kts 16°
2026-05-06 13:09 50.49307 3.34250 32184 ft 492 kts 16°
2026-05-06 13:10 50.52363 3.36600 31477 ft 488 kts 16°
2026-05-06 13:10 50.55417 3.38778 30825 ft 481 kts 14°
2026-05-06 13:10 50.58445 3.40820 30158 ft 476 kts 14°
2026-05-06 13:10 50.61460 3.42864 29490 ft 473 kts 14°
2026-05-06 13:11 50.64482 3.44931 28814 ft 471 kts 14°
2026-05-06 13:11 50.67508 3.47003 28133 ft 472 kts 15°
2026-05-06 13:11 50.70455 3.49036 27465 ft 468 kts 15°
2026-05-06 13:11 50.73439 3.51103 26785 ft 464 kts 15°
2026-05-06 13:12 50.76376 3.53141 26113 ft 460 kts 15°
2026-05-06 13:12 50.79242 3.55132 25455 ft 456 kts 15°
2026-05-06 13:12 50.82153 3.57160 24783 ft 452 kts 15°
2026-05-06 13:12 50.84975 3.59130 24129 ft 448 kts 16°
2026-05-06 13:13 50.87806 3.61079 23461 ft 441 kts 15°
2026-05-06 13:13 50.90639 3.62749 22792 ft 430 kts
2026-05-06 13:13 50.93508 3.63713 22157 ft 413 kts 357°
2026-05-06 13:13 50.96318 3.63991 21551 ft 402 kts 353°
2026-05-06 13:14 50.99065 3.64146 20957 ft 397 kts 353°
2026-05-06 13:14 51.01792 3.64322 20363 ft 392 kts 353°
2026-05-06 13:14 51.04490 3.64497 19775 ft 388 kts 353°
2026-05-06 13:14 51.07179 3.64667 19188 ft 383 kts 353°
2026-05-06 13:15 51.09818 3.64834 18614 ft 379 kts 354°
2026-05-06 13:15 51.12415 3.65002 18046 ft 374 kts 355°
2026-05-06 13:15 51.14989 3.65169 17476 ft 370 kts 355°
2026-05-06 13:15 51.17554 3.65334 16911 ft 365 kts 355°
2026-05-06 13:16 51.20047 3.65500 16361 ft 362 kts 357°
2026-05-06 13:16 51.22555 3.66120 15793 ft 366 kts 10°
2026-05-06 13:16 51.24920 3.67538 15226 ft 369 kts 22°
2026-05-06 13:16 51.27110 3.69688 14647 ft 370 kts 31°
2026-05-06 13:17 51.29196 3.72090 14062 ft 368 kts 32°
2026-05-06 13:17 51.31252 3.74460 13483 ft 364 kts 32°
2026-05-06 13:17 51.33289 3.76800 12909 ft 361 kts 33°
2026-05-06 13:17 51.35304 3.79122 12339 ft 358 kts 33°
2026-05-06 13:18 51.37315 3.81444 11770 ft 354 kts 33°
2026-05-06 13:18 51.39285 3.83723 11209 ft 350 kts 33°
2026-05-06 13:18 51.41247 3.85993 10662 ft 346 kts 33°
2026-05-06 13:18 51.43182 3.88236 10321 ft 335 kts 32°
2026-05-06 13:19 51.45004 3.90351 10182 ft 318 kts 32°
2026-05-06 13:19 51.46759 3.92390 10026 ft 305 kts 32°
2026-05-06 13:19 51.48461 3.94365 9685 ft 298 kts 32°
2026-05-06 13:19 51.50118 3.96285 9302 ft 294 kts 32°
2026-05-06 13:20 51.51767 3.98195 8931 ft 290 kts 32°
2026-05-06 13:20 51.53386 4.00082 8565 ft 285 kts 32°
2026-05-06 13:20 51.54987 4.01949 8212 ft 282 kts 32°
2026-05-06 13:20 51.56549 4.03768 7857 ft 279 kts 32°
2026-05-06 13:21 51.58121 4.05594 7505 ft 276 kts 32°
2026-05-06 13:21 51.59639 4.07362 7160 ft 273 kts 32°
2026-05-06 13:21 51.61153 4.09141 6817 ft 270 kts 32°
2026-05-06 13:21 51.62649 4.10889 6481 ft 267 kts 32°
2026-05-06 13:22 51.64157 4.12637 6141 ft 264 kts 32°
2026-05-06 13:22 51.65626 4.14347 5810 ft 260 kts 33°
2026-05-06 13:22 51.67069 4.16043 5480 ft 257 kts 33°
2026-05-06 13:22 51.68507 4.17749 5151 ft 254 kts 33°
2026-05-06 13:23 51.69924 4.19399 4829 ft 250 kts 33°
2026-05-06 13:23 51.71305 4.21056 4545 ft 246 kts 34°
2026-05-06 13:23 51.72657 4.22644 4442 ft 234 kts 29°
2026-05-06 13:23 51.74134 4.23556 4322 ft 225 kts
2026-05-06 13:24 51.75650 4.23231 4069 ft 221 kts 338°
2026-05-06 13:24 51.77016 4.22155 3815 ft 220 kts 336°
2026-05-06 13:24 51.78399 4.21082 3567 ft 221 kts 337°
2026-05-06 13:24 51.79790 4.20122 3465 ft 210 kts 343°
2026-05-06 13:25 51.81224 4.19946 3344 ft 209 kts
2026-05-06 13:25 51.82633 4.20293 3179 ft 201 kts
2026-05-06 13:25 51.83978 4.20558 3022 ft 188 kts
2026-05-06 13:25 51.85232 4.20739 2866 ft 176 kts
2026-05-06 13:26 51.86402 4.21197 2690 ft 175 kts 30°
2026-05-06 13:26 51.87203 4.22734 2512 ft 185 kts 59°
2026-05-06 13:26 51.87827 4.24491 2314 ft 178 kts 53°
2026-05-06 13:26 51.88504 4.26174 2131 ft 180 kts 53°
2026-05-06 13:27 51.89191 4.27837 1991 ft 177 kts 53°
2026-05-06 13:27 51.89874 4.29497 1980 ft 173 kts 54°
2026-05-06 13:27 51.90527 4.31143 1740 ft 176 kts 54°
2026-05-06 13:27 51.91198 4.32822 1504 ft 180 kts 53°
2026-05-06 13:28 51.91853 4.34458 1297 ft 159 kts 54°
2026-05-06 13:28 51.92407 4.35832 1048 ft 130 kts 56°
2026-05-06 13:28 51.92881 4.37022 858 ft 127 kts 54°
2026-05-06 13:28 51.93377 4.38254 778 ft 136 kts 53°
2026-05-06 13:29 51.93892 4.39532 533 ft 129 kts 56°
2026-05-06 13:29 51.94382 4.40744 315 ft 129 kts 56°
2026-05-06 13:29 51.94873 4.41972 186 ft 128 kts 55°
2026-05-06 13:29 51.95359 4.43194 18 ft 129 kts 53°
2026-05-06 13:30 51.95788 4.44263 -9 ft 88 kts 57°
2026-05-06 13:30 51.96022 4.44851 -9 ft 39 kts 57°
2026-05-06 13:30 51.96143 4.45161 -9 ft 19 kts 61°
2026-05-06 13:30 51.96148 4.45293 -7 ft 8 kts 114°
2026-05-06 13:31 51.96115 4.45368 -6 ft 8 kts 136°
2026-05-06 13:31 51.96056 4.45390 -6 ft 9 kts 205°
2026-05-06 13:31 51.96005 4.45299 -7 ft 12 kts 237°
2026-05-06 13:31 51.95953 4.45168 -9 ft 15 kts 237°
2026-05-06 13:32 51.95892 4.45014 -9 ft 16 kts 236°
2026-05-06 13:32 51.95825 4.44848 -12 ft 19 kts 237°
2026-05-06 13:32 51.95752 4.44665 -13 ft 19 kts 236°
2026-05-06 13:32 51.95683 4.44491 -9 ft 17 kts 237°
2026-05-06 13:33 51.95618 4.44326 -9 ft 17 kts 237°
2026-05-06 13:33 51.95555 4.44170 -6 ft 16 kts 236°
2026-05-06 13:33 51.95490 4.44008 -6 ft 18 kts 237°
2026-05-06 13:33 51.95420 4.43833 -6 ft 18 kts 237°
2026-05-06 13:34 51.95352 4.43664 -6 ft 17 kts 237°
2026-05-06 13:34 51.95288 4.43503 -6 ft 16 kts 236°
2026-05-06 13:34 51.95246 4.43441 -5 ft 7 kts 185°
2026-05-06 13:34 51.95197 4.43482 -6 ft 9 kts 144°
2026-05-06 13:35 51.95128 4.43557 -6 ft 11 kts 150°
2026-05-06 13:35 51.95091 4.43553 -6 ft 3 kts 224°
2026-05-06 13:35 51.95086 4.43521 -5 ft 2 kts 282°
2026-05-06 13:35 51.95105 4.43491 -5 ft 3 kts 328°
2026-05-06 13:36 51.95110 4.43486 -5 ft 0 kts 327°